Zurück zum Katalog

STARLINK-38162

AktivKommunikationSSO
NORAD 100159·PAYLOAD·🇺🇸 United States

Gestartet Jul 25, 2026 von Vandenberg Space Force Base

Loading…

Nächste Überflüge (nächste 24 Stunden)

TLE

AktuellSource: Space-Track

Epoche: Sep 14, 2026, 22:16 UTC

1 A0159U 26171M   26257.92845279  .00012286  00000-0  34147-3 0  9991
2 A0159  97.2835 290.4702 0000938 118.3584 241.7755 15.37003807  8042

Verfolge STARLINK-38162 in Echtzeit mit AllMySat

Download on the App Store